This demonstration page uses our WeatherBlox Daily Observations layout. Learn more.

Left ArrowRight Arrow

Hourly Observations for February 12, 2021

Temp ( °F °C ) Dew Point ( °F °C ) Humidity (%) Winds ( mph kmh ) Pressure ( in mb ) Visibility ( mi km ) Precip ( " mm )
12:54 am 00:54 Mostly Cloudy -1 -18.3 -9 -22.8 68 68 N 12 19 30.67 1039 10 16.0934 0.001 0.001
1:54 am 01:54 Clear -6 -21.1 -12 -24.4 75 75 N 6 9 30.68 1039 10 16.0934 0 0
2:54 am 02:54 Clear -7 -21.7 -14 -25.6 71 71 N 9 15 30.68 1039 10 16.0934 0 0
3:54 am 03:54 Clear -4 -20 -12 -24.4 68 68 N 7 11 30.68 1039 10 16.0934 0 0
4:54 am 04:54 Mostly Clear -4 -20 -12 -24.4 68 68 N 13 20 30.66 1038 10 16.0934 0 0
5:54 am 05:54 Cloudy -3 -19.4 -11 -23.9 68 68 N 14 22 30.66 1038 10 16.0934 0 0
6:54 am 06:54 Mostly Cloudy -3 -19.4 -10 -23.3 71 71 NNE 14 22 30.66 1038 10 16.0934 0 0
7:54 am 07:54 Cloudy -2 -18.9 -10 -23.3 68 68 NNE 18 30 30.68 1039 9 14.48406 0 0
8:54 am 08:54 Cloudy -2 -18.9 -11 -23.9 65 65 NE 15 24 30.69 1039 8 12.87472 0 0
9:54 am 09:54 Cloudy -1 -18.3 -12 -24.4 59 59 NE 14 22 30.72 1040 7 11.26538 0 0
10:06 am 10:06 Cloudy with Light Snow -2 -18.9 -11 -23.9 65 65 NE 15 24 30.79 1043 2 3.21868 0.001 0.001
10:17 am 10:17 Cloudy with Light Snow -2 -18.9 -11 -23.9 65 65 NE 14 22 30.79 1043 2 3.21868 0.001 0.001
10:54 am 10:54 Cloudy with Light Snow -2 -18.9 -10 -23.3 68 68 NE 14 22 30.73 1041 2 3.21868 0.01 0.254
11:01 am 11:01 Cloudy with Light Snow -1 -18.3 -10 -23.3 65 65 NE 13 20 30.79 1043 1.5 2.41401 0.001 0.001
11:44 am 11:44 Cloudy with Light Snow -1 -18.3 -9 -22.8 68 68 NNE 9 15 30.79 1043 0.75 1.207005 0.01 0.254
11:54 am 11:54 Mostly Cloudy with Snow -1 -18.3 -9 -22.8 68 68 NE 7 11 30.72 1040 0.5 0.80467 0.01 0.254
12:06 pm 12:06 Mostly Cloudy with Light Snow -1 -18.3 -10 -23.3 65 65 ENE 7 11 30.79 1043 0.75 1.207005 0.01 0.254
12:36 pm 12:36 Mostly Cloudy with Snow -1 -18.3 -10 -23.3 65 65 NE 8 13 30.76 1042 0.5 0.80467 0.03 0.762
12:54 pm 12:54 Mostly Cloudy with Snow -1 -18.3 -9 -22.8 68 68 NE 7 11 30.7 1040 0.5 0.80467 0.03 0.762
1:47 pm 13:47 Mostly Cloudy with Light Snow -1 -18.3 -9 -22.8 68 68 NE 6 9 30.72 1040 1 1.60934 0.03 0.762
1:54 pm 13:54 Cloudy with Light Snow -1 -18.3 -9 -22.8 68 68 NE 6 9 30.67 1039 1 1.60934 0.03 0.762
2:54 pm 14:54 Cloudy with Light Snow 0 -17.8 -9 -22.8 65 65 NE 6 9 30.65 1038 1.25 2.011675 0.01 0.254
3:13 pm 15:13 Cloudy with Light Snow 0 -17.8 -9 -22.8 65 65 NE 7 11 30.7 1040 2 3.21868 0.001 0.001
3:32 pm 15:32 Cloudy with Light Snow 0 -17.8 -9 -22.8 65 65 NNE 6 9 30.7 1040 3 4.82802 0.01 0.254
3:42 pm 15:42 Cloudy with Light Snow 0 -17.8 -9 -22.8 65 65 NE 8 13 30.7 1040 4 6.43736 0.01 0.254
3:54 pm 15:54 Cloudy with Light Snow 0 -17.8 -10 -23.3 62 62 NNE 7 11 30.65 1038 4 6.43736 0.01 0.254
4:04 pm 16:04 Cloudy with Light Snow 0 -17.8 -9 -22.8 65 65 NE 8 13 30.71 1040 2 3.21868 0.001 0.001
4:15 pm 16:15 Cloudy with Light Snow 0 -17.8 -9 -22.8 65 65 NE 7 11 30.71 1040 1.75 2.816345 0.001 0.001
4:30 pm 16:30 Cloudy with Light Snow 0 -17.8 -9 -22.8 65 65 NNE 7 11 30.7 1040 3 4.82802 0.001 0.001
4:54 pm 16:54 Cloudy -1 -18.3 -9 -22.8 68 68 NE 10 17 30.64 1038 10 16.0934 0.001 0.001
5:54 pm 17:54 Cloudy 0 -17.8 -10 -23.3 62 62 NNE 10 17 30.63 1037 10 16.0934 0 0
6:54 pm 18:54 Cloudy 0 -17.8 -9 -22.8 65 65 NNE 10 17 30.63 1037 10 16.0934 0 0
7:54 pm 19:54 Cloudy -1 -18.3 -10 -23.3 65 65 NNE 9 15 30.64 1038 10 16.0934 0 0
8:10 pm 20:10 Cloudy with Light Snow -1 -18.3 -9 -22.8 68 68 NNE 10 17 30.7 1040 1.75 2.816345 0.001 0.001
8:20 pm 20:20 Cloudy with Light Snow -1 -18.3 -9 -22.8 68 68 NNE 9 15 30.71 1040 1.5 2.41401 0.01 0.254
8:29 pm 20:29 Cloudy with Light Snow -1 -18.3 -8 -22.2 72 72 NNE 9 15 30.7 1040 1.5 2.41401 0.01 0.254
8:35 pm 20:35 Cloudy with Light Snow -1 -18.3 -8 -22.2 72 72 N 8 13 30.7 1040 2 3.21868 0.01 0.254
8:42 pm 20:42 Cloudy with Light Snow -1 -18.3 -8 -22.2 72 72 NNE 8 13 30.7 1040 1.75 2.816345 0.02 0.508
8:54 pm 20:54 Mostly Cloudy with Light Snow -1 -18.3 -8 -22.2 72 72 NNE 9 15 30.63 1037 1 1.60934 0.02 0.508
9:09 pm 21:09 Cloudy with Light Snow -1 -18.3 -8 -22.2 72 72 NE 7 11 30.7 1040 2 3.21868 0.01 0.254
9:20 pm 21:20 Cloudy with Light Snow -1 -18.3 -8 -22.2 72 72 NNE 7 11 30.7 1040 1.75 2.816345 0.01 0.254
9:54 pm 21:54 Cloudy with Light Snow -2 -18.9 -8 -22.2 75 75 N 8 13 30.63 1037 2 3.21868 0.03 0.762
10:04 pm 22:04 Cloudy with Light Snow -2 -18.9 -8 -22.2 75 75 N 12 19 30.7 1040 1.5 2.41401 0.001 0.001
10:23 pm 22:23 Cloudy with Light Snow -2 -18.9 -8 -22.2 75 75 N 8 13 30.7 1040 2 3.21868 0.01 0.254
10:54 pm 22:54 Cloudy with Light Snow -2 -18.9 -9 -22.8 72 72 N 10 17 30.63 1037 2.5 4.02335 0.01 0.254
11:04 pm 23:04 Cloudy with Light Snow -2 -18.9 -9 -22.8 72 72 N 10 17 30.69 1039 2 3.21868 0.01 0.254
11:35 pm 23:35 Cloudy with Light Snow -3 -19.4 -9 -22.8 75 75 N 9 15 30.7 1039 2.5 4.02335 0.01 0.254
11:46 pm 23:46 Cloudy with Light Snow -3 -19.4 -9 -22.8 75 75 N 10 17 30.7 1039 3 4.82802 0.02 0.508
11:54 pm 23:54 Cloudy with Light Snow -3 -19.4 -10 -23.3 71 71 N 12 19 30.63 1037 4 6.43736 0.02 0.508

Powered by AerisWeather